tititudorancea.com
Station Historical Data
Daily Summary for November 27, 2018 Units:  Metric    English   Both
« Previous Day
Next Day »
Daily Weekly Monthly Yearly Custom
  High: Low: Average:
Temperature: -17.8 °C 8.5 °C 13.9 °C
Dew Point: -17.8 °C 7.4 °C 9.4 °C
Humidity: Humidity % 49 % 76 %
Wind Speed: 0 km/h 5.6 km/h 17.2 km/h
Wind Gust: 0 km/h - -
Wind:- - SSW
Pressure: 0 hPa 1002.6 hPa -
Precipitation: 0 mm    
Historical Graphs
 
 
Ararat weather Find more about Weather in Ararat, AU


 



 


Tabular Data for November 27, 2018
Time Temperature Dew Point Pressure Wind Wind Speed Wind Gust Humidity Rainfall Rate (Hourly)
-17.8 °C -17.8 °C 0 hPa Calm     Humidity % 0 mm
00:04 10.7 °C 8.8 °C 1005.6 hPa North 7.4 km/h 3.9 km/h 88 % 0 mm
00:09 10.7 °C 8.8 °C 1005.6 hPa North 9.3 km/h 6.4 km/h 88 % 0 mm
00:14 10.6 °C 8.9 °C 1005.6 hPa North 13 km/h 7.6 km/h 89 % 0 mm
00:19 10.6 °C 8.8 °C 1005.6 hPa North 13 km/h 6.3 km/h 89 % 0 mm
00:24 10.5 °C 8.8 °C 1005.6 hPa South 9.3 km/h 4.2 km/h 89 % 0 mm
00:29 10.4 °C 8.7 °C 1005.6 hPa South 11.1 km/h 5.1 km/h 89 % 0 mm
00:34 10.4 °C 8.7 °C 1005.6 hPa South 5.6 km/h 4.8 km/h 89 % 0 mm
00:39 10.3 °C 8.7 °C 1005.6 hPa South 14.5 km/h 8.4 km/h 90 % 0 mm
00:44 10.2 °C 8.7 °C 1005.3 hPa North 9.7 km/h 9 km/h 90 % 0 mm
00:49 10.2 °C 8.7 °C 1005.3 hPa South 13 km/h 5 km/h 90 % 0 mm
00:54 10.2 °C 8.6 °C 1005.3 hPa South 13 km/h 6.9 km/h 90 % 0 mm
00:59 10.1 °C 8.6 °C 1005.3 hPa South 5.6 km/h 5.6 km/h 90 % 0 mm
01:04 10.1 °C 8.6 °C 1005.3 hPa North 9.3 km/h 2.7 km/h 90 % 0 mm
01:09 10.1 °C 8.5 °C 1005.3 hPa South 9.3 km/h 4.2 km/h 90 % 0 mm
01:14 10 °C 8.4 °C 1005.3 hPa South 8 km/h 8.9 km/h 90 % 0 mm
01:19 9.9 °C 8.4 °C 1005.3 hPa South 9.3 km/h 6 km/h 90 % 0 mm
01:24 9.9 °C 8.5 °C 1005 hPa South 9.7 km/h 7.4 km/h 91 % 0 mm
01:29 9.8 °C 8.4 °C 1005 hPa South 9.7 km/h 6.8 km/h 91 % 0 mm
01:34 9.8 °C 8.4 °C 1005.3 hPa South 6.4 km/h 4.7 km/h 91 % 0 mm
01:39 9.7 °C 8.3 °C 1005 hPa North 11.1 km/h 6.9 km/h 91 % 0 mm
01:44 9.7 °C 8.3 °C 1005 hPa South 13 km/h 6.8 km/h 91 % 0 mm
01:49 9.7 °C 8.3 °C 1005.3 hPa South 9.3 km/h 4.2 km/h 91 % 0 mm
01:54 9.6 °C 8.2 °C 1005.3 hPa South 9.7 km/h 5.5 km/h 91 % 0 mm
01:59 9.6 °C 8.2 °C 1005.3 hPa South 11.1 km/h 6 km/h 91 % 0 mm
02:04 9.6 °C 8.2 °C 1005 hPa South 9.3 km/h 6.4 km/h 91 % 0 mm
02:09 9.5 °C 8.1 °C 1005 hPa North 9.3 km/h 5.8 km/h 91 % 0 mm
02:14 9.4 °C 8.2 °C 1005 hPa South 9.3 km/h 6.9 km/h 92 % 0 mm
02:19 9.4 °C 8.2 °C 1005 hPa South 8 km/h 7.9 km/h 92 % 0 mm
02:24 9.4 °C 8.2 °C 1005 hPa South 9.3 km/h 8.2 km/h 92 % 0 mm
02:29 9.4 °C 8.2 °C 1005 hPa South 5.6 km/h 2.1 km/h 92 % 0 mm
02:34 9.3 °C 8.1 °C 1005 hPa South 6.4 km/h 4.8 km/h 92 % 0 mm
02:39 9.3 °C 8.1 °C 1004.6 hPa South 9.3 km/h 4.8 km/h 92 % 0 mm
02:44 9.3 °C 8.1 °C 1004.6 hPa South 6.4 km/h 5.1 km/h 92 % 0 mm
02:49 9.3 °C 8.1 °C 1004.6 hPa South 11.1 km/h 8 km/h 92 % 0 mm
02:54 9.3 °C 8.1 °C 1004.6 hPa South 13 km/h 6.3 km/h 92 % 0 mm
02:59 9.2 °C 8 °C 1004.3 hPa South 13 km/h 8.2 km/h 92 % 0 mm
03:04 9.2 °C 8 °C 1004.3 hPa South 13 km/h 8.9 km/h 92 % 0 mm
03:09 9.2 °C 7.9 °C 1004.3 hPa North 9.7 km/h 5.8 km/h 92 % 0 mm
03:14 9.1 °C 7.9 °C 1004.3 hPa South 9.3 km/h 6.9 km/h 92 % 0 mm
03:19 9.1 °C 8.1 °C 1004.3 hPa North 13 km/h 7.6 km/h 93 % 0 mm
03:24 9.1 °C 7.9 °C 1004.3 hPa South 11.1 km/h 4.8 km/h 92 % 0 mm
03:29 9.1 °C 7.8 °C 1004.3 hPa South 7.4 km/h 6.9 km/h 92 % 0 mm
03:34 9.1 °C 7.8 °C 1004.3 hPa South 7.4 km/h 7.2 km/h 92 % 0 mm
03:39 9 °C 7.9 °C 1004.3 hPa North 11.1 km/h 8.2 km/h 93 % 0 mm
03:44 9 °C 7.9 °C 1004.3 hPa South 9.7 km/h 8 km/h 93 % 0 mm
03:49 9.1 °C 8 °C 1004.3 hPa North 7.4 km/h 5.6 km/h 93 % 0 mm
03:54 9 °C 7.9 °C 1004.3 hPa South 11.1 km/h 5.1 km/h 93 % 0 mm
03:59 9 °C 7.9 °C 1004.3 hPa South 9.3 km/h 8.2 km/h 93 % 0 mm
04:04 8.9 °C 7.9 °C 1004.3 hPa South 5.6 km/h 7.6 km/h 93 % 0 mm
04:09 8.9 °C 7.9 °C 1004.3 hPa South 8 km/h 8.7 km/h 93 % 0 mm
04:14 9 °C 7.9 °C 1004.3 hPa South 7.4 km/h 5.5 km/h 93 % 0 mm
04:19 8.9 °C 7.9 °C 1004.3 hPa North 9.3 km/h 5.5 km/h 93 % 0 mm
04:24 8.9 °C 7.9 °C 1004.3 hPa South 11.1 km/h 6 km/h 93 % 0 mm
04:29 8.9 °C 7.9 °C 1004.3 hPa South 9.3 km/h 8 km/h 93 % 0 mm
04:34 8.8 °C 7.8 °C 1004.3 hPa South 11.3 km/h 7.1 km/h 93 % 0 mm
04:39 8.8 °C 7.7 °C 1004.3 hPa South 11.3 km/h 8.5 km/h 93 % 0 mm
04:44 8.8 °C 7.8 °C 1004.3 hPa South 11.3 km/h 8.9 km/h 93 % 0 mm
04:49 8.8 °C 7.7 °C 1004.3 hPa North 13 km/h 9.3 km/h 93 % 0 mm
04:54 8.8 °C 7.7 °C 1004.3 hPa South 9.3 km/h 3.4 km/h 93 % 0 mm
04:59 8.7 °C 7.6 °C 1004.3 hPa North 9.3 km/h 4.2 km/h 93 % 0 mm
05:04 8.6 °C 7.6 °C 1004.3 hPa South 8 km/h 4.8 km/h 93 % 0 mm
05:09 8.6 °C 7.5 °C 1004.3 hPa North 11.1 km/h 7.9 km/h 93 % 0 mm
05:14 8.5 °C 7.4 °C 1004.3 hPa South 5.6 km/h 5.1 km/h 93 % 0 mm
05:19 8.5 °C 7.4 °C 1004.3 hPa South 11.1 km/h 5.8 km/h 93 % 0 mm
05:24 8.5 °C 7.6 °C 1004.3 hPa South 9.3 km/h 5.3 km/h 94 % 0 mm
05:29 8.6 °C 7.7 °C 1004.3 hPa South 9.3 km/h 7.2 km/h 94 % 0 mm
05:30 8.6 °C 7.7 °C 1004.3 hPa South 11.1 km/h 5.1 km/h 94 % 0 mm
05:32 8.6 °C 7.7 °C 1004.3 hPa South 9.3 km/h 6.4 km/h 94 % 0 mm
05:39 8.6 °C 7.7 °C 1004.3 hPa South 9.7 km/h 5.5 km/h 94 % 0 mm
05:44 8.7 °C 7.8 °C 1004.3 hPa North 13 km/h 6 km/h 94 % 0 mm
05:49 8.7 °C 7.8 °C 1004.6 hPa South 13 km/h 9.3 km/h 94 % 0 mm
05:54 8.8 °C 7.9 °C 1004.6 hPa South 14.8 km/h 9.2 km/h 94 % 0 mm
05:59 8.9 °C 8.1 °C 1004.6 hPa South 9.3 km/h 6.4 km/h 94 % 0 mm
06:04 9.1 °C 8.2 °C 1004.6 hPa South 13 km/h 5.8 km/h 94 % 0 mm
06:09 9.1 °C 8.2 °C 1004.6 hPa South 9.7 km/h 6.8 km/h 94 % 0 mm
06:14 9.2 °C 8.3 °C 1004.6 hPa South 9.3 km/h 3.7 km/h 94 % 0 mm
06:19 9.3 °C 8.4 °C 1004.6 hPa South 9.3 km/h 5.1 km/h 94 % 0 mm
06:24 9.4 °C 8.4 °C 1004.6 hPa South 11.1 km/h 5.6 km/h 94 % 0 mm
06:29 9.4 °C 8.4 °C 1004.6 hPa South 8 km/h 7.6 km/h 94 % 0 mm
06:34 9.4 °C 8.5 °C 1005 hPa South 9.3 km/h 6.1 km/h 94 % 0 mm
06:39 9.4 °C 8.5 °C 1005 hPa South 13 km/h 10.3 km/h 94 % 0 mm
06:44 9.4 °C 8.5 °C 1005 hPa South 8 km/h 6.9 km/h 94 % 0 mm
06:49 9.5 °C 8.6 °C 1005 hPa South 11.1 km/h 6.9 km/h 94 % 0 mm
06:54 9.6 °C 8.6 °C 1005 hPa South 14.8 km/h 6.6 km/h 94 % 0 mm
06:59 9.6 °C 8.7 °C 1005 hPa South 11.1 km/h 7.4 km/h 94 % 0 mm
07:04 9.7 °C 8.7 °C 1005 hPa South 9.3 km/h 7.1 km/h 94 % 0 mm
07:09 9.7 °C 8.8 °C 1005 hPa South 14.8 km/h 8.2 km/h 94 % 0 mm
07:14 9.8 °C 8.9 °C 1005 hPa South 11.1 km/h 8 km/h 94 % 0 mm
07:19 9.9 °C 8.9 °C 1005 hPa South 11.1 km/h 9 km/h 94 % 0 mm
07:24 9.9 °C 8.9 °C 1005 hPa South 13 km/h 9.3 km/h 93 % 0 mm
07:29 10 °C 9.1 °C 1005 hPa South 16.1 km/h 10 km/h 94 % 0 mm
07:34 10.1 °C 9.2 °C 1005 hPa South 11.1 km/h 12.1 km/h 94 % 0 mm
07:39 10.2 °C 9.2 °C 1005 hPa South 13 km/h 7.9 km/h 93 % 0 mm
07:44 10.3 °C 9.3 °C 1005 hPa South 13 km/h 12.7 km/h 93 % 0 mm
07:49 10.4 °C 9.3 °C 1005 hPa South 9.3 km/h 6.4 km/h 93 % 0 mm
07:54 10.5 °C 9.4 °C 1005 hPa South 16.7 km/h 12.2 km/h 93 % 0 mm
07:59 10.6 °C 9.4 °C 1005 hPa South 11.1 km/h 6.1 km/h 93 % 0 mm
08:14 10.7 °C 9.5 °C 1005 hPa SSW 16.7 km/h 9.7 km/h 92 % 0 mm
08:19 10.8 °C 9.6 °C 1005 hPa SSW 9.3 km/h 6 km/h 92 % 0 mm
08:24 11 °C 9.7 °C 1005 hPa SSW 11.1 km/h 10.3 km/h 92 % 0 mm
08:29 11.2 °C 9.9 °C 1005 hPa South 13 km/h 5.6 km/h 92 % 0 mm
08:34 11.4 °C 10.1 °C 1005 hPa South 11.1 km/h 8.4 km/h 92 % 0 mm
08:39 11.7 °C 10.4 °C 1005 hPa South 9.3 km/h 6.4 km/h 92 % 0 mm
08:44 11.9 °C 10.4 °C 1005 hPa South 7.4 km/h 7.4 km/h 91 % 0 mm
08:49 12.1 °C 10.4 °C 1005 hPa South 18.5 km/h 12.7 km/h 90 % 0 mm
08:54 12.2 °C 10.4 °C 1005 hPa South 18.5 km/h 12.9 km/h 89 % 0 mm
08:59 12.4 °C 10.7 °C 1005 hPa South 16.7 km/h 7.6 km/h 89 % 0 mm
09:04 12.5 °C 10.4 °C 1005 hPa South 16.7 km/h 10.5 km/h 87 % 0 mm
09:09 12.6 °C 10.3 °C 1005 hPa South 18.5 km/h 12.6 km/h 86 % 0 mm
09:14 12.8 °C 10.6 °C 1005 hPa South 13 km/h 8.7 km/h 86 % 0 mm
09:19 13.1 °C 10.6 °C 1005 hPa South 18.5 km/h 13.2 km/h 85 % 0 mm
09:24 13.3 °C 10.7 °C 1005 hPa SSE 18.5 km/h 13.2 km/h 84 % 0 mm
09:29 13.7 °C 10.9 °C 1004.6 hPa SSE 14.8 km/h 6.6 km/h 83 % 0 mm
09:34 14.2 °C 11.1 °C 1005 hPa SSE 14.8 km/h 9.2 km/h 82 % 0 mm
09:39 14.6 °C 11.2 °C 1004.6 hPa South 18.5 km/h 9 km/h 80 % 0 mm
09:44 14.8 °C 10.8 °C 1004.6 hPa SSE 16.7 km/h 13.2 km/h 77 % 0 mm
09:45 14.8 °C 11 °C 1004.6 hPa South 18.5 km/h 12.6 km/h 78 % 0 mm
09:47 14.8 °C 11 °C 1004.6 hPa South 14.8 km/h 10.8 km/h 78 % 0 mm
09:54 14.8 °C 10.8 °C 1004.6 hPa South 16.7 km/h 14.8 km/h 77 % 0 mm
09:59 14.9 °C 10.7 °C 1004.6 hPa South 18.5 km/h 16.1 km/h 76 % 0 mm
10:04 15.3 °C 11.1 °C 1004.6 hPa SSW 18.5 km/h 11.4 km/h 76 % 0 mm
10:09 15.9 °C 11.7 °C 1004.6 hPa SSW 8 km/h 5.8 km/h 76 % 0 mm
10:14 16 °C 10.9 °C 1004.6 hPa SSW 11.1 km/h 5.1 km/h 72 % 0 mm
10:19 15.9 °C 10.7 °C 1004.6 hPa South 16.7 km/h 14.2 km/h 71 % 0 mm
10:24 15.8 °C 11 °C 1004.6 hPa South 16.7 km/h 13.5 km/h 73 % 0 mm
10:29 16.1 °C 11.1 °C 1004.6 hPa SSE 16.1 km/h 10.1 km/h 72 % 0 mm
10:34 16.4 °C 11.1 °C 1004.6 hPa South 11.3 km/h 8.7 km/h 71 % 0 mm
10:39 16.5 °C 10.8 °C 1004.6 hPa South 18.5 km/h 12.4 km/h 69 % 0 mm
10:44 16.8 °C 11.3 °C 1004.3 hPa South 16.1 km/h 10.3 km/h 70 % 0 mm
10:49 17.2 °C 11.4 °C 1004.6 hPa SSW 18.5 km/h 12.1 km/h 69 % 0 mm
10:54 17.2 °C 11 °C 1004.6 hPa South 16.7 km/h 13.2 km/h 67 % 0 mm
10:59 17.1 °C 11.2 °C 1004.6 hPa SSW 14.8 km/h 7.2 km/h 68 % 0 mm
11:04 17.2 °C 11.2 °C 1004.6 hPa SSW 22.5 km/h 13.2 km/h 68 % 0 mm
11:09 17.1 °C 10.9 °C 1004.6 hPa South 18.5 km/h 11.9 km/h 67 % 0 mm
11:14 17.2 °C 11.1 °C 1004.6 hPa South 13 km/h 11.3 km/h 67 % 0 mm
11:19 17.6 °C 11.3 °C 1004.6 hPa South 16.7 km/h 9.5 km/h 67 % 0 mm
11:24 17.7 °C 11.2 °C 1004.6 hPa North 18.5 km/h 9.3 km/h 66 % 0 mm
11:29 17.9 °C 11.2 °C 1004.3 hPa South 24.1 km/h 12.4 km/h 65 % 0 mm
11:34 18 °C 11.1 °C 1004.3 hPa SSW 18.5 km/h 11.9 km/h 64 % 0 mm
11:39 17.9 °C 10.8 °C 1004.3 hPa South 18.5 km/h 10 km/h 63 % 0 mm
11:44 17.9 °C 11.1 °C 1004.3 hPa South 16.7 km/h 11.3 km/h 64 % 0 mm
11:49 17.9 °C 10.6 °C 1004.3 hPa South 20.4 km/h 12.4 km/h 62 % 0 mm
11:54 18 °C 10.8 °C 1004.3 hPa SSW 22.2 km/h 14 km/h 63 % 0 mm
11:59 18.1 °C 10.9 °C 1004.3 hPa SSW 29.6 km/h 15.8 km/h 63 % 0 mm
12:04 18.2 °C 10.5 °C 1004.3 hPa South 16.7 km/h 7.7 km/h 61 % 0 mm
12:09 18.3 °C 10.6 °C 1004.3 hPa SSW 16.7 km/h 15.6 km/h 61 % 0 mm
12:14 18.4 °C 10.7 °C 1003.9 hPa SSW 16.7 km/h 9.2 km/h 61 % 0 mm
12:19 18.6 °C 10.4 °C 1003.9 hPa SSE 18.5 km/h 12.6 km/h 59 % 0 mm
12:24 18.7 °C 10.3 °C 1003.9 hPa South 14.8 km/h 8.2 km/h 58 % 0 mm
12:29 18.9 °C 10.2 °C 1003.9 hPa South 18.5 km/h 10.9 km/h 57 % 0 mm
12:34 19 °C 10.6 °C 1003.6 hPa South 18.5 km/h 9.3 km/h 58 % 0 mm
12:39 19.1 °C 10.3 °C 1003.6 hPa South 18.5 km/h 15 km/h 57 % 0 mm
12:44 19 °C 10 °C 1003.6 hPa South 16.7 km/h 8 km/h 56 % 0 mm
12:49 19.2 °C 9.9 °C 1003.6 hPa South 24.1 km/h 10.9 km/h 55 % 0 mm
12:54 19.1 °C 9.8 °C 1003.6 hPa South 19.3 km/h 12.1 km/h 55 % 0 mm
12:59 19.1 °C 9.6 °C 1003.6 hPa North 18.5 km/h 11.1 km/h 54 % 0 mm
13:04 19.1 °C 9.3 °C 1003.6 hPa SSW 13 km/h 3.2 km/h 53 % 0 mm
13:09 19.2 °C 9.1 °C 1003.6 hPa SSW 14.8 km/h 12.7 km/h 52 % 0 mm
13:14 19.3 °C 9.7 °C 1003.3 hPa SSE 20.4 km/h 12.1 km/h 54 % 0 mm
13:19 19.5 °C 9.7 °C 1003.3 hPa SSE 18.5 km/h 9.5 km/h 53 % 0 mm
13:24 19.7 °C 10.1 °C 1003.6 hPa SSW 18.5 km/h 9.3 km/h 54 % 0 mm
13:29 19.6 °C 9.7 °C 1003.3 hPa South 18.5 km/h 10.9 km/h 53 % 0 mm
13:34 19.4 °C 9.3 °C 1003.3 hPa SSE 22.2 km/h 14.8 km/h 52 % 0 mm
13:39 19.5 °C 9.4 °C 1003.3 hPa South 18.5 km/h 8.9 km/h 52 % 0 mm
13:44 19.6 °C 9.5 °C 1003.3 hPa South 14.8 km/h 7.4 km/h 52 % 0 mm
13:49 19.8 °C 9.6 °C 1003.3 hPa South 20.4 km/h 7.7 km/h 52 % 0 mm
13:54 19.9 °C 9.4 °C 1003.3 hPa South 14.8 km/h 11.1 km/h 51 % 0 mm
13:59 20 °C 9.6 °C 1003.3 hPa SSW 18.5 km/h 9.8 km/h 51 % 0 mm
14:04 20.3 °C 9.5 °C 1003.3 hPa South 20.9 km/h 16.3 km/h 50 % 0 mm
14:09 20.2 °C 9.2 °C 1002.9 hPa South 22.2 km/h 13.8 km/h 49 % 0 mm
14:14 20.2 °C 9.4 °C 1003.3 hPa SSW 18.5 km/h 15.3 km/h 50 % 0 mm
14:19 20.2 °C 9.7 °C 1003.3 hPa SSE 18.5 km/h 12.6 km/h 51 % 0 mm
14:24 20.1 °C 9.3 °C 1003.3 hPa South 18.5 km/h 10.9 km/h 50 % 0 mm
14:29 20.2 °C 9.7 °C 1003.3 hPa SSE 18.5 km/h 10.9 km/h 51 % 0 mm
14:34 20.5 °C 10 °C 1003.3 hPa SSW 16.1 km/h 15.1 km/h 51 % 0 mm
14:39 20.7 °C 10.2 °C 1003.3 hPa SSE 16.7 km/h 12.1 km/h 51 % 0 mm
14:44 20.7 °C 9.9 °C 1002.9 hPa SSE 16.7 km/h 11.7 km/h 50 % 0 mm
14:49 20.9 °C 10.1 °C 1003.3 hPa South 17.7 km/h 12.6 km/h 50 % 0 mm
14:54 21.3 °C 10.1 °C 1003.3 hPa South 20.4 km/h 13.2 km/h 49 % 0 mm
14:59 20.7 °C 9.6 °C 1003.3 hPa South 18.5 km/h 11.9 km/h 49 % 0 mm
15:04 20.4 °C 9.9 °C 1002.9 hPa South 13 km/h 6.8 km/h 51 % 0 mm
15:09 20.4 °C 9.9 °C 1002.9 hPa SE 20.4 km/h 12.6 km/h 51 % 0 mm
15:14 20.3 °C 9.6 °C 1002.9 hPa SSE 18.5 km/h 10 km/h 50 % 0 mm
15:19 20.2 °C 9.4 °C 1002.9 hPa SSW 22.2 km/h 13 km/h 50 % 0 mm
15:24 20.1 °C 9.7 °C 1002.9 hPa SSE 20.4 km/h 12.1 km/h 51 % 0 mm
15:29 20.2 °C 10.1 °C 1002.9 hPa SSE 18.5 km/h 10.3 km/h 52 % 0 mm
15:34 20.1 °C 9.7 °C 1002.9 hPa South 18.5 km/h 13.7 km/h 51 % 0 mm
15:39 20 °C 9.8 °C 1002.9 hPa SSE 13 km/h 12.4 km/h 52 % 0 mm
15:44 19.9 °C 9.7 °C 1002.9 hPa SSE 20.4 km/h 13.4 km/h 52 % 0 mm
15:49 19.8 °C 9.9 °C 1002.9 hPa SSE 18.5 km/h 12.2 km/h 53 % 0 mm
15:54 19.7 °C 9.6 °C 1002.9 hPa SSE 18.5 km/h 8.4 km/h 52 % 0 mm
15:59 19.6 °C 9.5 °C 1002.9 hPa SSE 18.5 km/h 10.6 km/h 52 % 0 mm
16:04 19.6 °C 9.4 °C 1002.9 hPa South 18.5 km/h 11.7 km/h 52 % 0 mm
16:09 19.5 °C 9.7 °C 1002.9 hPa South 20.4 km/h 17.1 km/h 53 % 0 mm
16:14 19.3 °C 9.8 °C 1002.9 hPa South 13 km/h 8.4 km/h 54 % 0 mm
16:19 19.3 °C 9.7 °C 1002.6 hPa SSE 22.2 km/h 17.4 km/h 54 % 0 mm
16:24 19.2 °C 9.7 °C 1002.6 hPa SSW 25.9 km/h 15 km/h 54 % 0 mm
16:29 19.3 °C 9.7 °C 1002.6 hPa SSE 18.5 km/h 15.8 km/h 54 % 0 mm
16:34 19.2 °C 9.9 °C 1002.6 hPa SSW 29 km/h 17.5 km/h 55 % 0 mm
16:39 19.3 °C 9.7 °C 1002.6 hPa SSW 25.9 km/h 12.6 km/h 54 % 0 mm
16:44 19.3 °C 10 °C 1002.6 hPa South 29 km/h 14.5 km/h 55 % 0 mm
16:49 19.3 °C 10 °C 1002.6 hPa South 18.5 km/h 11.4 km/h 55 % 0 mm
16:54 19.3 °C 10 °C 1002.6 hPa SSW 25.9 km/h 13.2 km/h 55 % 0 mm
16:59 19.2 °C 9.9 °C 1002.6 hPa South 29.6 km/h 14.3 km/h 55 % 0 mm
17:04 19.1 °C 10.1 °C 1002.9 hPa SSE 29.6 km/h 24.8 km/h 56 % 0 mm
17:09 18.9 °C 10.4 °C 1002.9 hPa South 27.8 km/h 17.5 km/h 58 % 0 mm
17:14 18.7 °C 10.6 °C 1002.9 hPa South 24.1 km/h 15.6 km/h 59 % 0 mm
17:19 18.5 °C 10.6 °C 1002.9 hPa South 42.6 km/h 20.8 km/h 60 % 0 mm
17:24 18.3 °C 10.9 °C 1002.9 hPa SSW 31.5 km/h 16.4 km/h 62 % 0 mm
17:29 18.1 °C 10.9 °C 1002.9 hPa SSW 27.4 km/h 24.5 km/h 63 % 0 mm
17:34 18 °C 10.8 °C 1003.3 hPa SSW 33.3 km/h 25.7 km/h 63 % 0 mm
17:39 17.8 °C 10.9 °C 1003.3 hPa South 37 km/h 24.6 km/h 64 % 0 mm
17:44 17.6 °C 11.1 °C 1003.3 hPa South 31.5 km/h 15.8 km/h 66 % 0 mm
17:49 17.4 °C 11.2 °C 1003.3 hPa South 27.8 km/h 17.7 km/h 67 % 0 mm
17:54 17.3 °C 11.1 °C 1003.6 hPa SW 38.6 km/h 24.1 km/h 67 % 0 mm
17:59 17.1 °C 11.2 °C 1003.3 hPa SSW 29.6 km/h 17.7 km/h 68 % 0 mm
18:04 17 °C 11.1 °C 1003.6 hPa South 31.5 km/h 23.5 km/h 68 % 0 mm
18:09 16.8 °C 10.8 °C 1003.6 hPa South 25.9 km/h 22 km/h 68 % 0 mm
18:14 16.7 °C 11 °C 1003.6 hPa South 25.9 km/h 16.4 km/h 69 % 0 mm
18:19 16.8 °C 11.1 °C 1003.6 hPa SSW 22.2 km/h 15.3 km/h 69 % 0 mm
18:24 16.8 °C 10.9 °C 1003.6 hPa SSW 25.9 km/h 17.2 km/h 68 % 0 mm
18:29 16.6 °C 10.7 °C 1003.6 hPa South 33.3 km/h 24.9 km/h 68 % 0 mm
18:34 16.5 °C 10.8 °C 1003.6 hPa SSW 31.5 km/h 20.9 km/h 69 % 0 mm
18:39 16.2 °C 10.5 °C 1003.6 hPa South 40.7 km/h 25.1 km/h 69 % 0 mm
18:44 15.9 °C 10.5 °C 1003.9 hPa South 38.9 km/h 20.1 km/h 70 % 0 mm
18:49 15.8 °C 10.4 °C 1004.3 hPa South 33.3 km/h 17.5 km/h 70 % 0 mm
18:54 15.8 °C 10.6 °C 1004.3 hPa South 29 km/h 15.8 km/h 71 % 0 mm
18:59 15.6 °C 10.2 °C 1004.3 hPa South 33.3 km/h 24.8 km/h 70 % 0 mm
19:04 15.5 °C 10.3 °C 1004.3 hPa South 29 km/h 19.8 km/h 71 % 0 mm
19:09 15.4 °C 10.2 °C 1004.3 hPa South 16.7 km/h 13.2 km/h 71 % 0 mm
19:14 15.4 °C 10.2 °C 1004.6 hPa SSW 24.1 km/h 19.2 km/h 71 % 0 mm
19:19 15.3 °C 10.1 °C 1004.6 hPa South 18.5 km/h 12.7 km/h 71 % 0 mm
19:24 15.3 °C 10.1 °C 1004.6 hPa SSW 25.7 km/h 21.6 km/h 71 % 0 mm
19:29 15.2 °C 9.9 °C 1005 hPa South 31.5 km/h 12.7 km/h 71 % 0 mm
19:34 15.1 °C 9.9 °C 1005 hPa SSW 25.9 km/h 18 km/h 71 % 0 mm
19:39 15.1 °C 10.1 °C 1005 hPa SSW 25.9 km/h 14.2 km/h 72 % 0 mm
19:44 15 °C 9.8 °C 1005 hPa South 22.2 km/h 14.8 km/h 71 % 0 mm
19:49 14.9 °C 9.9 °C 1005 hPa South 31.5 km/h 22.4 km/h 72 % 0 mm
19:54 14.9 °C 9.9 °C 1005 hPa SSW 25.9 km/h 16.9 km/h 72 % 0 mm
19:59 14.8 °C 9.8 °C 1005.3 hPa SSW 29 km/h 13 km/h 72 % 0 mm
20:04 14.7 °C 9.7 °C 1005.3 hPa South 24.1 km/h 17.1 km/h 72 % 0 mm
20:09 14.7 °C 9.7 °C 1005.3 hPa South 18.5 km/h 16.3 km/h 72 % 0 mm
20:14 14.6 °C 9.6 °C 1005.3 hPa South 24.1 km/h 14.5 km/h 72 % 0 mm
20:19 14.5 °C 9.7 °C 1005.3 hPa SSE 18.5 km/h 15.9 km/h 73 % 0 mm
20:24 14.4 °C 9.6 °C 1005.3 hPa South 16.7 km/h 10 km/h 73 % 0 mm
20:29 14.3 °C 9.8 °C 1005.6 hPa SSW 29 km/h 17.9 km/h 74 % 0 mm
20:34 14.3 °C 9.7 °C 1005.6 hPa South 24.1 km/h 12.4 km/h 74 % 0 mm
20:39 14.2 °C 9.7 °C 1005.6 hPa South 17.7 km/h 10.9 km/h 74 % 0 mm
20:44 14.2 °C 9.6 °C 1005.6 hPa SSW 22.2 km/h 10.6 km/h 74 % 0 mm
20:49 14.1 °C 9.5 °C 1005.6 hPa SSW 29.6 km/h 22.7 km/h 74 % 0 mm
20:54 14 °C 9.4 °C 1005.6 hPa South 22.2 km/h 10.6 km/h 74 % 0 mm
20:59 13.9 °C 9.4 °C 1005.6 hPa South 27.8 km/h 17.5 km/h 74 % 0 mm
21:04 13.9 °C 9.6 °C 1005.6 hPa SSW 18.5 km/h 9.5 km/h 75 % 0 mm
21:09 13.9 °C 9.6 °C 1005.6 hPa SW 25.9 km/h 16.4 km/h 75 % 0 mm
21:14 13.8 °C 9.5 °C 1005.6 hPa South 24.1 km/h 16.9 km/h 75 % 0 mm
21:19 13.8 °C 9.5 °C 1005.6 hPa South 20.4 km/h 15.3 km/h 75 % 0 mm
21:24 13.8 °C 9.4 °C 1005.6 hPa SSW 20.9 km/h 13.8 km/h 75 % 0 mm
21:29 13.7 °C 9.4 °C 1005.6 hPa SSW 22.2 km/h 14.5 km/h 75 % 0 mm
21:34 13.7 °C 9.6 °C 1005.6 hPa SSW 24.1 km/h 15.4 km/h 76 % 0 mm
21:39 13.7 °C 9.3 °C 1006 hPa South 13 km/h 10.1 km/h 75 % 0 mm
21:44 13.7 °C 9.5 °C 1006 hPa South 27.8 km/h 15.6 km/h 76 % 0 mm
21:49 13.6 °C 9.4 °C 1006 hPa South 29.6 km/h 18 km/h 76 % 0 mm
21:54 13.6 °C 9.4 °C 1006 hPa South 22.2 km/h 10.1 km/h 76 % 0 mm
21:59 13.5 °C 9.6 °C 1006 hPa SSE 18.5 km/h 19.3 km/h 77 % 0 mm
22:04 13.4 °C 9.5 °C 1006.3 hPa South 25.9 km/h 18.5 km/h 77 % 0 mm
22:09 13.4 °C 9.4 °C 1006.3 hPa SSW 18.5 km/h 12.9 km/h 77 % 0 mm
22:14 13.4 °C 9.6 °C 1006.3 hPa SSW 17.7 km/h 15.1 km/h 78 % 0 mm
22:19 13.3 °C 9.6 °C 1006.3 hPa South 20.4 km/h 18.2 km/h 78 % 0 mm
22:24 13.3 °C 9.6 °C 1006.3 hPa South 16.7 km/h 7.6 km/h 78 % 0 mm
22:29 13.3 °C 9.7 °C 1006.3 hPa South 14.5 km/h 8.2 km/h 79 % 0 mm
22:34 13.2 °C 9.7 °C 1006.3 hPa South 18.5 km/h 9.2 km/h 79 % 0 mm
22:39 13.2 °C 9.7 °C 1006.7 hPa North 16.7 km/h 10 km/h 79 % 0 mm
22:44 13.2 °C 9.8 °C 1006.7 hPa South 16.7 km/h 12.2 km/h 80 % 0 mm
22:49 13.2 °C 9.8 °C 1006.7 hPa South 20.4 km/h 13 km/h 80 % 0 mm
22:54 13.1 °C 9.7 °C 1006.7 hPa South 20.4 km/h 11.9 km/h 80 % 0 mm
22:59 13.1 °C 9.7 °C 1006.7 hPa SSE 16.7 km/h 12.9 km/h 80 % 0 mm
23:04 13.1 °C 9.7 °C 1006.7 hPa South 20.4 km/h 12.1 km/h 80 % 0 mm
23:09 13 °C 9.8 °C 1006.7 hPa South 18.5 km/h 9.8 km/h 81 % 0 mm
23:14 13 °C 9.8 °C 1006.7 hPa South 19.3 km/h 12.7 km/h 81 % 0 mm
23:19 13 °C 10 °C 1006.7 hPa South 18.5 km/h 6.6 km/h 82 % 0 mm
23:24 12.9 °C 10.5 °C 1006.7 hPa South 14.8 km/h 10 km/h 85 % 0 mm
23:29 12.9 °C 9.9 °C 1006.7 hPa South 22.2 km/h 17.4 km/h 82 % 0 mm
23:34 12.9 °C 10.1 °C 1006.7 hPa SSE 11.1 km/h 6.3 km/h 83 % 0 mm
23:39 12.9 °C 10.1 °C 1006.7 hPa SSE 18.5 km/h 10.6 km/h 83 % 0 mm
23:44 12.9 °C 10.2 °C 1006.7 hPa South 13 km/h 7.1 km/h 84 % 0 mm
23:49 12.8 °C 10.2 °C 1006.7 hPa South 20.4 km/h 10.9 km/h 84 % 0 mm
23:54 12.8 °C 10.2 °C 1006.7 hPa South 13 km/h 8.7 km/h 84 % 0 mm
23:59 12.8 °C 10.2 °C 1006.7 hPa South 16.7 km/h 8.9 km/h 84 % 0 mm
Ararat Weather
Compliments of Weather Underground - 2.25 mb
Click here to send mail.


ABOUT

Live weather data from Ararat, Victoria, Australia, 3377
Data uploaded from Cumulus every 5 minutes to Weather Underground.
This site then downloads the raw data for formatting and display.
Metric and imperial data can be displayed. Graphs and historical data available.
Includes Sun and Moon times and rain image live from BOM.

Check out Ararat Weather on Facebook, Twitter and Google +

Help support ongoing costs by checking out the ads





Follow @AraratWeather